Hourly Data Report for November 15, 2005

TORONTO CITY
ONTARIO

43°40'00.000" N
79°24'00.000" W
112.50 m
6158355
71508
XTO

Download Data

Hourly Data (November 2005)
Hourly Data Report for November 15, 2005
TIME
LST
Temp Definition
°C
Dew Point Definition
°C
Rel Hum Definition
%
Precip. Amount Definition
mm

Wind Dir Definition
10's deg

Wind Spd Definition
km/h
Visibility Definition
km
Stn Press Definition
kPa
Hmdx Definition


Wind Chill Definition


Weather Definition


00:00 6.4 2.8 78   LegendMM LegendMM   101.12     LegendNANA
01:00 6.6 3.0 78   LegendMM LegendMM   101.00     LegendNANA
02:00 6.5 3.8 83   LegendMM LegendMM   100.83     LegendNANA
03:00 6.3 4.5 88   LegendMM LegendMM   100.71     LegendNANA
04:00 6.5 5.2 91   LegendMM LegendMM   100.64     LegendNANA
05:00 5.9 5.3 96   LegendMM LegendMM   100.48     LegendNANA
06:00 5.8 5.4 97   LegendMM LegendMM   100.45     LegendNANA
07:00 6.0 5.7 98   LegendMM LegendMM   100.35     LegendNANA
08:00 6.3 6.1 99   LegendMM LegendMM   100.40     LegendNANA
09:00 6.5 6.3 99   LegendMM LegendMM   100.38     LegendNANA
10:00 6.4 6.2 99   LegendMM LegendMM   100.33     LegendNANA
11:00 6.7 6.6 99   LegendMM LegendMM   100.30     LegendNANA
12:00 7.0 6.8 99   LegendMM LegendMM   100.23     LegendNANA
13:00 7.0 6.7 98   LegendMM LegendMM   100.15     LegendNANA
14:00 7.0 6.7 98   LegendMM LegendMM   100.06     LegendNANA
15:00 6.8 6.6 99   LegendMM LegendMM   99.98     LegendNANA
16:00 6.9 6.7 99   LegendMM LegendMM   99.93     LegendNANA
17:00 7.3 7.1 99   LegendMM LegendMM   99.85     LegendNANA
18:00 7.4 7.2 99   LegendMM LegendMM   99.77     LegendNANA
19:00 7.3 7.1 99   LegendMM LegendMM   99.61     LegendNANA
20:00 7.3 7.1 99   LegendMM LegendMM   99.50     LegendNANA
21:00 7.5 7.3 99   LegendMM LegendMM   99.41     LegendNANA
22:00 7.8 7.7 99   LegendMM LegendMM   99.32     LegendNANA
23:00 8.6 8.4 99   LegendMM LegendMM   99.20     LegendNANA

Notes on Data Quality.

Legend

  • E = Estimated
  • M = Missing
  • NA = Not Available*
  • [empty] = Indicates an unobserved value
Date modified: